Weather in Severny

Russia / Nizhny Novgorod Oblast'     57°28′51″N   44°34′20″E
temp.,
°C
wind,
m/s
gust,
m/s
humid.,
%
clouds,
%
prec.,
mm/h
press.,
hPa
HPBL,
m
15 april, thu
thu1500:00+9s25905 0.0 102078
03:00+8ssw22915 0.0 101911
06:00+6sw119813 0.0 101918
09:00+14n116895 0.0 1019239
12:00+18nne215685 0.0 1018873
15:00+16nne5671100 0.8 1019789
18:00+8ne51187100 0.3 1022503
21:00+6ne51286100 0.3 1024539
16 april, fri
fri1600:00+5ne4128778 0.0 1025516
03:00+3ene5128586 0.0 1026496
06:00+3ene4118666 0.0 1027491
09:00+6ene586718 0.0 1028607
12:00+9ene575418 0.0 1028957
15:00+11ene574559 0.0 10281150
18:00+9ene48555 0.0 1028749
21:00+4ene311715 0.0 1029341
17 april, sat
sat1700:00+3ene311785 0.0 1030276
03:00+1ene310836 0.0 1030224
06:00+1ene39795 0.0 1031249
09:00+7ene47525 0.0 1031658
12:00+10ene46420 0.0 10301213
15:00+12ene45400 0.0 10291388
18:00+9ne36534 0.0 1028229
21:00+4ne27730 0.0 1029125
18 april, sun
sun1800:00+3ne25793 0.0 102983
03:00+2ne29865 0.0 1029182
06:00+2ne28835 0.0 1029222
09:00+8ene365682 0.0 1029709
12:00+11ne464430 0.0 10281391
15:00+12ne574247 0.0 10281821
18:00+8ene586639 0.0 1029931
21:00+4ene3107462 0.0 1031575
19 april, mon
mon1900:00+2e31166100 0.0 1032448
03:000ene3107067 0.0 1033309
06:000ene3107019 0.0 1033355
09:00+5e47424 0.0 10331181
12:00+7e56320 0.0 10331633
15:00+8e46335 0.0 10321760
18:00+6e47445 0.0 1032775
21:00+2e28640 0.0 1033175